Total_Precipitation_Accumulation
1.86 1.80 1.60 1.47 1.38 1.32 1.30 1.24 1.09 1.00 0.94 0.92 0.87 0.81 0.75 0.71 0.69 0.68 0.67 0.70 0.94 1.38 1.70 1.87 1.97 1.92 1.88 1.86 1.87 1.82 1.75 1.61 1.45 1.27 1.13 1.02 0.96 0.93 0.97 0.99 0.99 0.97 0.96
2.05 1.98 1.87 1.76 1.59 1.47 1.43 1.38 1.23 1.24 1.22 1.16 1.06 0.95 0.84 0.78 0.74 0.69 0.66 0.68 0.81 1.06 1.45 1.80 1.96 2.04 2.15 2.20 2.16 2.01 1.91 1.83 1.78 1.62 1.40 1.24 1.11 1.05 1.11 1.09 1.03 1.01 1.01
2.21 2.13 2.11 1.94 1.72 1.65 1.66 1.63 1.53 1.47 1.40 1.32 1.22 1.15 1.04 0.96 0.87 0.79 0.75 0.71 0.76 0.93 1.22 1.53 1.76 1.96 2.24 2.46 2.56 2.43 2.17 1.98 1.86 1.75 1.63 1.50 1.35 1.20 1.20 1.24 1.22 1.17 1.12
2.30 2.25 2.20 2.15 1.95 1.89 1.92 1.85 1.74 1.67 1.53 1.41 1.31 1.27 1.20 1.15 1.08 1.03 0.96 0.86 0.81 0.80 1.00 1.33 1.54 1.81 2.15 2.45 2.70 2.76 2.52 2.21 1.94 1.80 1.71 1.66 1.59 1.52 1.44 1.38 1.37 1.33 1.29
2.49 2.38 2.19 2.15 2.14 2.03 1.97 1.98 1.89 1.77 1.66 1.58 1.51 1.42 1.36 1.33 1.24 1.17 1.16 1.08 1.00 0.91 0.90 1.09 1.32 1.48 1.79 2.17 2.48 2.78 2.73 2.44 2.16 1.93 1.82 1.79 1.79 1.79 1.70 1.58 1.50 1.44 1.40
2.53 2.45 2.29 2.27 2.29 2.19 2.01 1.93 1.86 1.81 1.72 1.72 1.70 1.60 1.51 1.47 1.46 1.34 1.25 1.23 1.18 1.09 1.01 0.98 1.04 1.18 1.42 1.77 2.11 2.49 2.72 2.64 2.44 2.18 1.99 1.92 1.92 1.97 1.95 1.87 1.80 1.67 1.60
2.67 2.63 2.50 2.46 2.45 2.34 2.20 2.14 2.12 2.02 1.88 1.84 1.84 1.69 1.60 1.56 1.49 1.41 1.33 1.21 1.17 1.16 1.14 1.10 1.03 1.00 1.11 1.42 1.72 2.06 2.50 2.81 2.79 2.61 2.35 2.19 2.12 2.11 2.19 2.25 2.19 2.05 1.91
2.99 2.88 2.83 2.80 2.72 2.57 2.43 2.34 2.31 2.25 2.08 2.03 2.05 2.01 1.85 1.80 1.61 1.37 1.30 1.21 1.16 1.16 1.16 1.21 1.20 1.07 0.98 1.06 1.26 1.58 1.98 2.52 2.97 3.14 3.02 2.78 2.62 2.49 2.52 2.56 2.61 2.52 2.32
3.18 3.04 2.99 3.04 3.01 2.87 2.71 2.53 2.42 2.34 2.32 2.24 2.14 2.27 2.03 1.73 1.57 1.45 1.32 1.24 1.21 1.23 1.22 1.24 1.28 1.21 1.07 0.98 1.00 1.19 1.53 1.99 2.58 3.13 3.42 3.37 3.17 2.97 2.94 2.96 3.00 3.02 2.88
3.32 3.22 3.17 3.14 3.16 3.13 2.96 2.81 2.67 2.56 2.52 2.44 2.30 2.08 1.94 1.69 1.60 1.50 1.37 1.34 1.29 1.25 1.24 1.24 1.29 1.31 1.28 1.20 1.16 1.18 1.29 1.55 2.06 2.63 3.13 3.36 3.40 3.30 3.24 3.24 3.31 3.37 3.33
3.33 3.27 3.20 3.10 3.05 3.07 3.11 3.06 2.86 2.75 2.60 2.40 2.25 2.07 1.94 1.71 1.51 1.51 1.36 1.27 1.31 1.25 1.20 1.20 1.26 1.32 1.33 1.30 1.23 1.29 1.41 1.50 1.82 2.31 2.90 3.26 3.47 3.63 3.64 3.55 3.47 3.42 3.41
3.26 3.22 3.18 3.07 2.91 2.84 2.87 2.99 2.99 2.85 2.72 2.51 2.29 2.14 2.01 1.90 1.69 1.63 1.55 1.30 1.28 1.26 1.24 1.22 1.19 1.22 1.26 1.30 1.32 1.53 1.50 1.62 1.89 2.26 2.79 3.31 3.54 3.64 3.78 3.80 3.76 3.65 3.48
3.07 3.02 3.02 3.02 2.96 2.83 2.83 2.88 2.96 2.88 2.75 2.62 2.45 2.27 2.12 1.95 1.78 1.78 1.84 1.69 1.47 1.28 1.26 1.27 1.26 1.27 1.30 1.39 1.51 1.75 1.69 1.78 1.95 2.26 2.69 3.12 3.34 3.38 3.43 3.62 3.79 3.85 3.85
3.01 2.93 2.84 2.77 2.78 2.75 2.74 2.78 2.81 2.82 2.79 2.66 2.49 2.31 2.17 1.99 1.92 1.97 2.02 2.12 2.04 1.68 1.44 1.34 1.31 1.39 1.49 1.60 1.83 1.99 1.76 1.97 2.08 2.30 2.62 2.92 2.94 2.94 2.93 3.06 3.36 3.61 3.69
2.80 2.85 2.83 2.66 2.57 2.55 2.55 2.57 2.56 2.50 2.55 2.55 2.44 2.33 2.17 2.01 2.00 2.02 2.09 2.27 2.55 2.42 1.92 1.52 1.50 1.54 1.61 1.78 2.10 1.96 1.79 2.10 2.14 2.16 2.29 2.39 2.34 2.37 2.51 2.57 2.67 2.86 3.02
2.36 2.47 2.58 2.58 2.51 2.50 2.45 2.41 2.34 2.23 2.21 2.19 2.19 2.24 2.17 2.01 1.98 1.99 2.08 2.19 2.35 2.49 2.25 1.64 1.47 1.53 1.69 1.81 2.12 1.96 1.88 2.12 2.05 2.07 2.07 2.10 2.06 2.06 2.13 2.27 2.28 2.28 2.36
2.04 2.17 2.28 2.41 2.42 2.39 2.38 2.30 2.19 2.13 2.06 1.97 1.96 2.03 2.02 1.92 1.95 1.93 1.96 2.06 2.18 2.35 2.38 1.88 1.58 1.60 1.77 1.81 1.84 1.76 1.72 1.72 1.69 1.90 1.83 1.84 1.86 1.85 1.82 1.93 2.06 2.06 2.05
1.82 1.90 1.94 2.02 2.12 2.16 2.21 2.21 2.10 2.00 1.95 1.86 1.81 1.88 1.90 1.88 1.92 1.93 1.99 2.03 2.04 2.09 2.19 2.03 1.72 1.61 1.61 1.60 1.57 1.56 1.54 1.46 1.40 1.67 1.67 1.63 1.64 1.64 1.58 1.56 1.72 1.83 1.82
1.57 1.67 1.72 1.74 1.78 1.84 1.92 1.98 1.98 1.94 1.86 1.78 1.78 1.82 1.84 1.92 1.96 1.94 1.98 2.02 1.98 1.90 1.87 1.86 1.65 1.47 1.45 1.47 1.55 1.49 1.46 1.45 1.31 1.47 1.59 1.58 1.57 1.50 1.49 1.47 1.49 1.59 1.63
1.22 1.27 1.37 1.45 1.54 1.60 1.68 1.73 1.77 1.83 1.85 1.82 1.81 1.81 1.82 1.92 2.01 2.04 2.06 2.03 1.97 1.93 1.84 1.80 1.70 1.53 1.46 1.43 1.55 1.59 1.55 1.50 1.41 1.28 1.47 1.53 1.55 1.53 1.45 1.39 1.34 1.31 1.38
0.99 1.00 1.11 1.21 1.31 1.41 1.51 1.60 1.64 1.70 1.73 1.75 1.79 1.82 1.84 1.97 2.04 2.02 1.94 1.84 1.79 1.83 1.78 1.75 1.66 1.53 1.45 1.46 1.50 1.43 1.40 1.41 1.44 1.33 1.34 1.37 1.37 1.35 1.34 1.37 1.37 1.35 1.36
0.99 1.00 1.02 1.09 1.19 1.27 1.54 1.64 1.62 1.60 1.64 1.68 1.68 1.68 1.72 1.81 1.74 1.76 1.74 1.67 1.70 1.82 1.83 1.70 1.53 1.36 1.18 1.14 1.19 1.32 1.41 1.56 1.62 1.35 1.27 1.33 1.31 1.40 1.30 1.26 1.39 1.37 1.35
1.01 1.07 1.05 1.08 1.13 1.27 1.50 1.55 1.70 1.66 1.63 1.60 1.56 1.55 1.51 1.45 1.49 1.34 1.42 1.45 1.43 1.49 1.51 1.47 1.45 1.20 1.04 1.00 1.20 1.41 1.46 1.44 1.32 1.18 1.28 1.46 1.36 1.35 1.21 1.24 1.42 1.36 1.33
1.16 1.21 1.19 1.20 1.25 1.37 1.56 1.56 1.63 1.55 1.47 1.42 1.35 1.32 1.32 1.26 1.27 1.33 1.35 1.37 1.22 1.14 1.12 1.06 1.04 0.99 1.00 1.09 1.30 1.53 1.60 1.64 1.44 1.26 1.31 1.57 1.42 1.33 1.21 1.19 1.35 1.35 1.34
1.43 1.42 1.41 1.37 1.37 1.41 1.48 1.40 1.41 1.36 1.29 1.20 1.12 1.10 1.15 1.15 1.28 1.49 1.48 1.43 1.29 1.16 1.15 1.20 1.19 1.19 1.29 1.40 1.51 1.75 1.94 2.11 1.96 1.52 1.30 1.37 1.28 1.26 1.30 1.29 1.34 1.43 1.39
1.39 1.37 1.37 1.30 1.23 1.16 1.19 1.18 1.21 1.17 1.13 1.02 0.97 0.99 1.13 1.19 1.38 1.58 1.56 1.50 1.44 1.22 1.17 1.23 1.25 1.24 1.20 1.26 1.43 1.44 1.61 2.00 1.98 1.67 1.22 1.24 1.25 1.41 1.73 1.43 1.32 1.38 1.39